TimeMDT,TemperatureF,Dew PointF,Humidity,Sea Level PressureIn,VisibilityMPH,Wind Direction,Wind SpeedMPH,Gust SpeedMPH,PrecipitationIn,Events,Conditions,WindDirDegrees,DateUTC
12:53 AM,28.0,24.1,85,30.70,10.0,WNW,4.6,-,N/A,,Clear,290,2013-05-02 06:53:00
1:53 AM,28.0,24.1,85,30.70,10.0,WNW,6.9,-,N/A,,Overcast,300,2013-05-02 07:53:00
2:53 AM,28.0,23.0,81,30.71,10.0,NW,5.8,-,N/A,,Overcast,310,2013-05-02 08:53:00
3:53 AM,27.0,21.9,81,30.71,10.0,NW,5.8,-,N/A,,Overcast,310,2013-05-02 09:53:00
4:53 AM,26.1,21.0,81,30.72,10.0,NW,8.1,-,N/A,,Clear,310,2013-05-02 10:53:00
5:53 AM,27.0,21.0,78,30.74,10.0,NW,8.1,-,N/A,,Mostly Cloudy,320,2013-05-02 11:53:00
6:53 AM,27.0,21.0,78,30.74,10.0,NW,8.1,-,N/A,,Scattered Clouds,310,2013-05-02 12:53:00
7:53 AM,30.9,21.0,67,30.75,10.0,WNW,9.2,-,N/A,,Clear,300,2013-05-02 13:53:00
8:53 AM,34.0,24.1,67,30.75,10.0,WNW,11.5,-,N/A,,Clear,300,2013-05-02 14:53:00
9:53 AM,37.0,26.1,65,30.74,10.0,West,8.1,-,N/A,,Clear,280,2013-05-02 15:53:00
10:53 AM,39.0,27.0,62,30.73,10.0,West,10.4,-,N/A,,Clear,270,2013-05-02 16:53:00
11:53 AM,42.1,26.1,53,30.70,10.0,West,12.7,-,N/A,,Clear,260,2013-05-02 17:53:00
12:53 PM,45.0,24.1,44,30.66,10.0,West,12.7,-,N/A,,Clear,260,2013-05-02 18:53:00
1:53 PM,48.0,18.0,30,30.62,10.0,West,12.7,-,N/A,,Clear,260,2013-05-02 19:53:00
2:53 PM,48.9,19.9,32,30.59,10.0,West,12.7,21.9,N/A,,Partly Cloudy,280,2013-05-02 20:53:00
3:53 PM,48.0,24.1,39,30.55,10.0,West,12.7,19.6,N/A,,Clear,270,2013-05-02 21:53:00
4:53 PM,48.9,25.0,39,30.53,10.0,WSW,11.5,-,N/A,,Overcast,240,2013-05-02 22:53:00
5:53 PM,48.0,25.0,41,30.51,10.0,SW,12.7,-,N/A,,Scattered Clouds,220,2013-05-02 23:53:00
6:53 PM,46.9,25.0,42,30.49,10.0,SSW,10.4,-,N/A,,Clear,210,2013-05-03 00:53:00
7:53 PM,42.1,23.0,47,30.49,10.0,SSW,6.9,-,N/A,,Clear,200,2013-05-03 01:53:00
8:53 PM,39.0,27.0,62,30.49,10.0,SSE,4.6,-,N/A,,Clear,160,2013-05-03 02:53:00
9:53 PM,37.0,26.1,65,30.48,10.0,South,4.6,-,N/A,,Clear,180,2013-05-03 03:53:00
10:53 PM,34.0,27.0,75,30.46,10.0,ESE,4.6,-,N/A,,Clear,120,2013-05-03 04:53:00
11:53 PM,32.0,26.1,79,30.44,10.0,East,5.8,-,N/A,,Clear,90,2013-05-03 05:53:00